Latrobe, PA

2:49 PM EDT on August 20, 2019 (GMT -0400)
Arnold Palmer Regional

Weather History for KLBE - June, 2019

Change the Weather History Date:

Friday, June 14, 2019

  Actual Average Record
Temperature  
Mean Temperature 60 °F -  
Max Temperature 69 °F 76 °F 91 °F (2000)
Min Temperature 51 °F 57 °F 50 °F (2011)
Degree Days  
Heating Degree Days 5    
Growing Degree Days 10 (Base 50)    
Moisture  
Dew Point 49 °F    
Average Humidity 79    
Maximum Humidity 100    
Minimum Humidity 40    
Precipitation  
Precipitation 0.00 in - - ()
Sea Level Pressure  
Sea Level Pressure 29.99 in    
Wind  
Wind Speed 16 mph (SW)    
Max Wind Speed 23 mph    
Max Gust Speed 31 mph    
Visibility 8 miles    
Events Rain    
Averages and records for this station are not official NWS values.
T = Trace of Precipitation, MM = Missing Value Source: NWS Daily Summary

Daily Weather History Graph

Daily Weather History Graph

Search for Another Location

Airport or City:

Astronomy

Jun. 14, 2019 Rise Set
Actual Time 5:47 AM EDT 8:48 PM EDT
Civil Twilight 5:14 AM EDT 9:21 PM EDT
Nautical Twilight 4:32 AM EDT 10:03 PM EDT
Astronomical Twilight 3:43 AM EDT 10:52 PM EDT
Moon 6:08 PM EDT (6/14) 4:04 AM EDT (6/14)
Length of Visible Light 16h 07m
Length of Day
15h 01m
Waxing Gibbous, 92% of the Moon is Illuminated
Jun 14
Waxing Gibbous
Jun 17
Full
Jun 25
Last Quarter
Jul 2
New
Jul 9
First Quarter

Hourly Weather History & Observations

Time (EDT) Temp. Dew Point Humidity Pressure Visibility Wind Dir Wind Speed Gust Speed Precip Events Conditions
12:15 AM 53.6 °F 50.0 °F 88% 29.84 in 10.0 mi SW 23.0 mph 28.8 mph N/A   Overcast
12:35 AM 53.6 °F 48.2 °F 82% 29.85 in 8.0 mi SW 16.1 mph 23.0 mph N/A   Light Drizzle
12:55 AM 53.6 °F 51.8 °F 94% 29.85 in 4.0 mi SSW 19.6 mph 26.5 mph N/A Rain Light Rain
1:15 AM 51.8 °F 51.8 °F 100% 29.85 in 3.0 mi SSW 18.4 mph 25.3 mph N/A Rain Light Rain
1:35 AM 51.8 °F 51.8 °F 100% 29.85 in 7.0 mi SSW 16.1 mph - N/A Rain Light Rain
1:55 AM 51.8 °F 51.8 °F 100% 29.85 in 8.0 mi SSW 17.3 mph - N/A   Light Drizzle
2:15 AM 51.8 °F 51.8 °F 100% 29.86 in 3.0 mi SW 15.0 mph 23.0 mph N/A Rain Rain
2:35 AM 51.8 °F 51.8 °F 100% 29.87 in 3.0 mi SW 16.1 mph - N/A Rain Light Rain
2:55 AM 51.8 °F 51.8 °F 100% 29.88 in 4.0 mi SW 15.0 mph - N/A Rain Light Rain
3:15 AM 51.8 °F 51.8 °F 100% 29.89 in 4.0 mi WSW 11.5 mph 19.6 mph N/A Rain Rain
3:35 AM 51.8 °F 51.8 °F 100% 29.89 in 3.0 mi West 9.2 mph 16.1 mph N/A Rain Heavy Rain
3:55 AM 51.8 °F 51.8 °F 100% 29.90 in 10.0 mi WSW 10.4 mph 25.3 mph N/A   Overcast
4:15 AM 51.8 °F 51.8 °F 100% 29.91 in 10.0 mi WSW 11.5 mph 21.9 mph N/A   Overcast
4:35 AM 51.8 °F 51.8 °F 100% 29.92 in 10.0 mi WSW 12.7 mph - N/A   Overcast
4:55 AM 51.8 °F 51.8 °F 100% 29.93 in 10.0 mi WSW 12.7 mph - N/A   Unknown
5:15 AM 51.8 °F 51.8 °F 100% 29.95 in 10.0 mi WSW 15.0 mph 20.7 mph N/A   Unknown
5:35 AM 51.8 °F 51.8 °F 100% 29.97 in 10.0 mi WSW 11.5 mph 21.9 mph N/A   Mostly Cloudy
5:55 AM 51.8 °F 51.8 °F 100% 29.99 in 10.0 mi WSW 9.2 mph 17.3 mph N/A   Overcast
6:53 AM 51.8 °F 51.8 °F 100% 30.02 in 10.0 mi WSW 17.3 mph - N/A   Overcast
7:53 AM 51.8 °F 51.8 °F 100% 30.06 in 10.0 mi SW 13.8 mph - N/A   Overcast
8:53 AM 53.6 °F 50.0 °F 88% 30.07 in 10.0 mi SW 17.3 mph - N/A   Mostly Cloudy
9:53 AM 59.0 °F 48.2 °F 67% 30.10 in 10.0 mi WSW 13.8 mph - N/A   Partly Cloudy
10:53 AM 60.8 °F 44.6 °F 55% 30.11 in 10.0 mi WSW 17.3 mph 28.8 mph N/A   Partly Cloudy
11:53 AM 64.4 °F 46.4 °F 52% 30.12 in 10.0 mi WSW 23.0 mph 31.1 mph N/A   Partly Cloudy
12:50 PM 64.4 °F 44.6 °F 49% 30.12 in 10.0 mi WSW 18.4 mph 29.9 mph N/A   Mostly Cloudy
1:50 PM 66.2 °F 46.4 °F 49% 30.12 in 10.0 mi WSW 11.5 mph 23.0 mph N/A   Mostly Cloudy
2:50 PM 68.0 °F 46.4 °F 46% 30.12 in 10.0 mi WSW 11.5 mph 23.0 mph N/A   Mostly Cloudy
3:50 PM 69.8 °F 46.4 °F 43% 30.12 in 10.0 mi WSW 11.5 mph 23.0 mph N/A   Mostly Cloudy
4:50 PM 69.8 °F 46.4 °F 43% 30.11 in 10.0 mi West 17.3 mph 28.8 mph N/A   Scattered Clouds
5:45 PM 69.8 °F 46.4 °F 43% 30.09 in 10.0 mi WSW 15.0 mph 26.5 mph N/A   Partly Cloudy
6:45 PM 69.8 °F 44.6 °F 40% 30.07 in 10.0 mi WSW 11.5 mph - N/A   Clear
7:45 PM 68.0 °F 46.4 °F 46% 30.08 in 10.0 mi SW 9.2 mph - N/A   Clear
8:50 PM 62.6 °F 48.2 °F 59% 30.09 in 10.0 mi SSW 4.6 mph - N/A   Clear
9:45 PM 60.8 °F 48.2 °F 63% 30.10 in 10.0 mi South 8.1 mph - N/A   Clear
10:15 PM 60.8 °F 48.2 °F 63% 30.11 in 10.0 mi South 5.8 mph - N/A   Clear
10:35 PM 59.0 °F 48.2 °F 67% 30.11 in 10.0 mi SSW 4.6 mph - N/A   Clear